Location: Northcutt
(34.7304°N, 84.4305°W)
Time: 04:11:23
(UTC+00:00)

Vanguard 2 - Pass Details

Date: 08 October 2022
Orbit: 553 x 2933 km, 32.9° (Epoch: 05 December)

Event Time Altitude Azimuth Distance (km) Brightness Sun altitude
Rises 14:01:33 0° 185° (S) 3,247 11.1 27.1°
Reaches altitude 10° 14:05:32 10° 154° (SSE) 2,697 11.4 27.8°
Maximum altitude 14:07:56 12° 132° (SE) 2,785 12.1 28.2°
Drops below altitude 10° 14:10:43 10° 110° (ESE) 3,237 12.3 28.7°
Sets 14:16:49 0° 85° (E) 4,860 12.3 29.8°
